C/2002 U2 (LINEAR)                                                    

Epoch 2003 Jan. 1.0 TT = JDT 2452640.5  

T 2002 Dec. 31.98558 TT                                 Nakano

q   1.2086339            (2000.0)            P               Q

z  -0.0000398      Peri.   95.84699     -0.39903562     -0.74280655

 +/-0.0000023      Node    38.77670     -0.03318200     -0.57421395

e   1.0000481      Incl.   59.13579     +0.91633483     -0.34426264

From 333 observations 2002 Oct. 25-2003 May 22, mean residual 0".76.

   (1/a)org.= +0.001021, (1/a)fut.= +0.000663 (+/-0.000002), Q= 7.

Residuals in seconds of arc 

2002/                     021117 232 (1.0-  2.0+)   030116 118  0.1+  0.1-  

021025 704  1.9-  0.2+    021118 349  0.1+  0.9-    030116 118  0.7-  0.2+  

021025 704 (2.8-  0.7+)   021118 349  0.2+  0.2-    030116 670  1.9-  0.0   

021025 704  1.4-  0.7+    021118 349  0.2-  1.1-    030116 670  1.3-  1.4+  

021025 704 (2.9-  1.2+)   021118 349  0.7+  0.2-    030121 349  0.2-  0.5+  

021025 176  1.2-  0.4+    021126 349  0.3-  0.7-    030121 349  0.3-  1.1+  

021025 176  1.2-  0.5+    021126 349  0.5+  0.4-    030121 349  0.5-  0.4+  

021025 176  1.1-  0.5+    021126 349  0.5-  0.4-    030121 349  0.8-  0.0   

021025 176  1.1-  0.5+    021126 349  0.0   1.2-    030121 349  0.0   0.1+  

021025 176  1.0-  0.5+    021126 349  0.6+  1.3-    030122 939  0.1+  0.0   

021026 557  1.2-  0.3+    021126 J95  0.1-  0.2+    030122 939  0.1+  0.1-  

021026 557  0.9-  0.3+    021126 J95  0.5+  0.2-    030122 939  0.6-  0.2+  

021026 557  1.1-  0.3+    021126 J95  0.7+  0.7-    030125 213  0.4-  0.5+  

021026 557  0.8-  0.2+    021128 355  0.8-  0.1+    030125 232  0.6+  0.2+  

021026 232  0.0   0.2-    021128 355  0.4-  0.0     030125 232 (2.0-  2.2+) 

021026 232  0.8-  1.1+    021128 355  0.2-  0.6+    030125 232 (5.2-  4.0+) 

021026 232  0.2-  1.1-    021202 349  0.2-  0.4-    030125 170  1.5-  1.8+  

021026 232  1.2-  0.6+    021202 349  0.4-  0.7-    030125 170  0.9-  1.2+  

021026 232  1.7+  0.0     021202 349  0.2-  1.0-    030131 349  0.4+  0.3+  

021026 232  0.6+  0.0     021202 349  0.2-  1.1-    030131 349  0.2-  0.4+  

021026 151 (2.2-  0.3+)   021205 J95  0.0   0.8-    030131 349  1.4-  0.6+  

021026 151  0.9-  0.9+    021205 J95  0.4+  0.9-    030201 232  0.3-  0.8+  

021026 151 (2.1-  0.9+)   021208 118  0.3-  0.9-    030201 232 (2.9-  6.9+) 

021026 151  1.1-  0.8+    021208 118  0.1-  1.0-    030202 A46 (2.3-  0.9+) 

021026 349  1.4-  1.0+    021208 118  0.3-  0.5-    030202 A46  0.8-  1.0+  

021026 349  1.3-  1.4+    021210 A46  0.2+  0.7-    030202 A46  0.2-  0.2+  

021026 349  0.7-  0.9+    021210 A46  0.2-  0.4-    030202 A46  0.6-  1.1+  

021026 349  0.9-  0.9+    021210 A46  0.9-  0.6+    030202 A46  0.1-  1.3+  

021027 213  0.9-  0.4+    021210 A46  0.3-  0.9+    030202 A46  1.0+  1.1+  

021027 213 (6.6-  2.0+)   021210 A46  0.8-  0.4+    030202 A46 (2.9+  0.4+) 

021027 213 (2.3+  0.4-)   021210 A46  0.3-  0.3-    030203 670  0.5+  0.5+  

021027 213  1.6-  0.4-    021210 A46  0.6-  0.0     030206 349  0.4-  0.3+  

021027 232  1.5-  0.3+    021210 A46  0.7-  0.4+    030206 349  0.0   0.5+  

021027 232 (2.4-  0.8+)   021210 A46  0.6-  0.6-    030206 349  0.3-  0.0   

021027 232  1.1-  1.6+    021210 A46  0.4+  0.2+    030206 349  0.1-  0.1+  

021027 232  0.4+  0.3+    021210 349  0.8-  0.7-    030207 704  1.8-  1.6+  

021027 232  0.9-  0.5-    021210 349  0.7-  0.5-    030207 704  1.8-  1.7+  

021027 342  0.7+  0.3-    021210 349  0.5-  0.4+    030207 704 (1.4-  2.0+) 

021027 342  0.1-  0.2+    021210 349  0.7-  0.2+    030207 704 (2.3-  1.9+) 

021027 342  0.4-  0.3-    021210 349  0.1+  0.4-    030207 704 (3.6-  2.7+) 

021027 349  0.9-  1.0+    021210 340  0.3-  0.2+    030209 939  1.2+  0.4-  

021027 349  1.0-  0.8+    021210 340  0.7-  0.2+    030209 939  1.3+  1.0-  

021027 349  1.0-  0.3+    021210 340  0.5-  0.9+    030209 939 (0.7+  2.3-) 

021027 349  1.2-  0.2+    021210 340  0.7-  0.3+    030209 232 (2.0+  0.7+) 

021029 049 (3.6-  0.0 )   021211 A46  0.5-  1.2-    030209 232  1.5+  0.4-  

021029 049 (2.0-  0.3+)   021211 A46  0.3+  0.9-    030213 349  0.2-  0.3-  

021029 049 (2.8-  0.5+)   021211 A46  0.4-  1.0+    030213 349  0.1+  0.3+  

021029 704 (3.6-  2.2+)   021211 A46  1.6-  1.9+    030213 349  0.0   0.3+  

021029 704 (5.7-  2.2+)   021211 A46  0.2-  0.6+    030213 349  0.0   0.3-  

021029 704  0.4+  0.5-    021211 A46 (0.4+  2.7+)   030213 349  0.0   0.5+  

021029 704 (2.8-  0.3-)   021211 A46 (1.1+  4.5+)   030216 213 (4.3+  1.6-) 

021029 704 (2.0-  0.9-)   021213 349  0.5-  0.6+    030216 213 (4.8+  4.7+) 

021029 340  1.2-  0.9+    021213 349  0.2+  1.2+    030216 170  0.7+  1.0+  

021029 340 (2.6-  0.7+)   021213 349  0.5+  0.9-    030216 170  1.1+  0.5+  

021029 340  0.6-  1.3+    021213 349  0.4-  0.5-    030227 340  0.4-  1.3+  

021029 340  0.5-  0.3-    021213 349  0.5-  1.0+    030227 340  0.5-  0.2+  

021029 340  0.5+  1.4-    021214 204  1.1-  0.8-    030227 340  0.6-  0.5-  

021029 349  0.4-  0.4+    021214 204  0.7-  0.5-    030228 704  0.7-  1.8+  

021029 349  0.7-  0.4+    021214 204  0.2-  1.6-    030228 704 (1.6-  2.3+) 

021029 349  0.2-  0.7+    021214 204  0.3-  0.9-    030228 704 (2.7-  2.9+) 

021029 349  0.4-  0.4+    021214 204  0.3-  0.8-    030228 704 (4.5-  4.3+) 

021029 349  0.6-  0.3+    021214 204  0.8-  0.5-    030228 704 (2.3-  3.1+) 

021030 704 (3.6-  2.0+)   021214 204  0.3-  1.0-    030228 349  1.6+  0.7-  

021030 704  1.5-  0.7+    021214 204  0.5-  1.0-    030228 349  1.8+  0.8-  

021030 704 (3.0-  0.2+)   021214 204  0.2-  1.3-    030228 349  1.0+  0.6-  

021030 704 (0.5+  2.3-)   021214 204  0.2-  0.7-    030228 349  0.3-  0.4-  

021030 349  0.6-  0.3+    021214 204  0.2-  0.9-    030303 H41 (9.7-  7.6+) 

021030 349  0.5-  0.0     021214 204  0.4-  1.2-    030303 H41 (0.5+  7.6+) 

021030 349  0.2-  0.7+    021214 340  1.2-  0.0     030304 H43  1.6+  0.3+  

021030 349  0.2-  0.1-    021214 340  1.3-  0.8+    030304 H43  1.4+  0.8-  

021102 048  0.1-  0.3+    021214 340  0.5-  0.8-    030306 H43  1.4+  0.4+  

021102 048  0.3+  0.7+    021215 921 (5.9-  6.0+)   030307 H43  0.8+  1.2-  

021102 048  1.3+  0.7+    021215 921 (2.1+  1.3-)   030307 H43 (0.8-  2.4+) 

021102 048  0.7+  0.5+    021219 349  0.3-  0.4+    030307 349  0.1-  0.8-  

021103 349  1.2-  0.3+    021219 349  0.9-  0.9+    030307 349  1.7+  0.3+  

021103 349  0.5-  0.0     021219 349  1.2-  0.6+    030307 349  0.5+  0.4+  

021103 349  0.4-  0.6+    021219 349  1.2-  0.9+    030307 349  1.3+  0.1-  

021103 349  0.7-  0.8+    021222 340  0.8-  0.2+    030308 H43 (0.1+  8.5+) 

021103 349  0.2-  0.7+    021222 340  0.9-  0.6-    030309 213 (4.0+  0.8-) 

021105 049 (2.5-  1.4+)   021222 340  0.1-  0.6+    030309 213  0.4+  1.2+  

021105 049 (2.2-  0.9+)   021225 349  0.9-  0.3+    030309 213 (5.1+  3.1-) 

021105 049 (2.4-  1.5+)   021225 349  0.6-  0.9+    030309 H43 (3.8+  0.2-) 

021105 235 (2.4+  0.6-)   021225 349  0.9-  0.3+    030309 H43 (2.7+  0.7-) 

021106 340  0.3+  0.6+    021225 349  0.9-  0.5+    030310 H41 (4.3+  0.5-) 

021106 340  0.1+  0.8+    021226 046  0.3-  0.5-    030310 H41 (3.1+  2.1+) 

021106 340  0.5+  0.3-    021226 046  0.4-  1.0-    030311 H43 (1.4+  2.2+) 

021106 340  0.1-  0.0     021226 046  0.2-  0.8-    030311 360  0.8+  0.6-  

021106 340  0.8+  0.3+    021226 046  0.3-  0.8-    030311 360  1.5+  0.0   

021106 048  0.7+  1.5-    021226 046  0.0   0.8-    030314 704  1.3+  0.5+  

021106 048  0.9+  0.5-    021226 046  0.1-  0.5-    030314 704  0.6+  1.0+  

021106 048 (2.0+  0.9-)   021226 046  0.0   0.6-    030314 704  1.1-  1.2+  

021106 048 (3.0+  0.1+)   021226 461  0.3-  0.6-    030324 H43 (0.5+  4.6+) 

021108 235 (2.9+  0.9-)   021226 461  0.2-  0.8-    030327 H43 (0.3+  3.4+) 

021109 118  0.7+  0.4-    021226 461  0.3-  0.5-    030329 683 (2.0-  0.3-) 

021109 118  0.7+  0.4-    021226 461  0.2-  0.8-    030329 683 (2.6-  0.6+) 

021109 118  0.8+  0.4-    021228 349  0.7-  0.6+    030329 683  1.2-  0.3-  

021109 349  0.4+  0.3+    021228 349  1.0-  0.5+    030405 360  0.6+  0.1-  

021109 349  0.1-  1.3+    021228 349  0.5-  0.9+    030405 360  1.0+  0.1+  

021109 349  0.7+  0.8+    021228 349  0.3-  0.2+    030405 360  0.4+  0.3+  

021109 349  0.5+  0.2+    021229 A02  1.0-  1.6+    030406 850  0.1-  0.2-  

021109 349  0.3+  0.6+    021229 A02  0.9-  1.6+    030406 850  1.7-  0.4+  

021110 048  0.3+  0.6-    021229 A02  1.9-  1.7+    030406 349 (0.1+  2.7-) 

021110 048  0.4+  1.1-    021229 232 (2.9-  1.6+)   030406 349  0.5-  1.1-  

021110 048  0.9-  1.7-    021229 232 (1.1-  2.1+)   030406 349  1.1-  0.2-  

021110 561  0.4+  0.3-    021229 232 (2.5-  3.8+)   030408 704  0.0   0.7+  

021110 561 (2.7-  1.5+)   021229 340  0.6-  0.6+    030408 704  0.9+  0.1+  

021110 561  1.2+  1.1-    021229 340  0.8-  1.8+    030408 704  0.1+  0.1-  

021110 561  1.9+  1.2-    021229 340  1.0-  1.3+    030408 704  0.3-  0.2+  

021110 561  1.2+  1.0-    021230 349  1.5-  0.8+    030408 704  1.0-  1.1+  

021110 561 (5.0-  3.3+)   021230 349  0.3-  1.0+    030408 608  1.8+  0.5-  

021110 561 (4.5-  2.4+)   021230 349  0.2-  1.4+    030408 608  1.6+  1.2-  

021110 561 (4.7-  2.9+)   021230 349  0.9-  1.5+    030408 608  1.5+  0.3-  

021110 561 (4.7-  2.8+)   021230 349  0.5-  0.1+    030411 H41 (1.9-  3.7+) 

021110 561 (4.6-  2.5+)   2003/                     030411 H41  0.2-  1.8-  

021110 A46  0.1-  0.3-    030104 204  0.6-  0.3+    030421 H41 (1.7+  4.7-) 

021110 A46  0.3+  0.2+    030104 204  0.7-  0.3+    030421 360  0.4+  0.3-  

021110 A46  0.3+  0.2-    030104 204  0.6-  0.6+    030421 360  0.2+  0.8-  

021110 A46  0.4+  0.1+    030104 204  0.5-  0.3+    030422 H41 (2.4-  1.5+) 

021110 A46  0.3+  0.6-    030104 204  0.5-  0.1-    030425 246  1.2+  0.2-  

021111 A46  0.5+  0.1+    030104 204  0.3-  0.2-    030425 246  1.0+  0.7-  

